FW1999 Weather Reports


Display with metric or nautical units.
time (UTC)temp
F
wind
direction
speed
MPH
gust
MPH
rain 1hr
in
rain 24hr
in
rain mn
in
humidity
%
barometer
mb
20210723194335 81 60 3.0 8.0 0.00 0.00 0.00 34 1019.7
20210723193810 81 70 4.0 7.0 0.00 0.00 0.00 32 1019.8
20210723193244 81 49 3.0 10.0 0.00 0.00 0.00 32 1019.9
20210723192718 81 39 2.0 6.0 0.00 0.00 0.00 32 1019.9
20210723192153 81 76 3.0 8.0 0.00 0.00 0.00 33 1020.0
20210723191626 82 39 2.0 8.0 0.00 0.00 0.00 30 1019.9
20210723191101 82 49 1.0 5.0 0.00 0.00 0.00 31 1020.0
20210723190534 82 122 2.0 4.0 0.00 0.00 0.00 32 1020.2
20210723190009 82 52 2.0 4.0 0.00 0.00 0.00 31 1020.2
20210723185442 83 235 1.0 6.0 0.00 0.00 0.00 31 1020.2
20210723184913 83 15 1.0 6.0 0.00 0.00 0.00 32 1020.2
20210723184412 83 226 1.0 6.0 0.00 0.00 0.00 33 1020.2
20210723183907 83 6 2.0 6.0 0.00 0.00 0.00 35 1020.2
20210723183405 82 191 1.0 4.0 0.00 0.00 0.00 32 1020.2
20210723182850 83 243 1.0 3.0 0.00 0.00 0.00 35 1020.2
20210723182350 83 109 1.0 3.0 0.00 0.00 0.00 34 1020.2
20210723181850 82 14 1.0 2.0 0.00 0.00 0.00 37 1020.3
20210723181351 82 316 1.0 3.0 0.00 0.00 0.00 37 1020.4
20210723180845 81 77 2.0 6.0 0.00 0.00 0.00 41 1020.4
20210723180344 80 97 2.0 6.0 0.00 0.00 0.00 35 1020.3
20210723175816 81 19 2.0 5.0 0.00 0.00 0.00 36 1020.3
20210723175313 81 62 2.0 9.0 0.00 0.00 0.00 36 1020.4
20210723174812 80 342 4.0 9.0 0.00 0.00 0.00 33 1020.4
20210723174246 80 46 3.0 8.0 0.00 0.00 0.00 37 1020.3
20210723173718 81 352 1.0 5.0 0.00 0.00 0.00 33 1020.3
20210723173217 81 212 2.0 5.0 0.00 0.00 0.00 36 1020.2
20210723172650 80 102 2.0 5.0 0.00 0.00 0.00 38 1020.2
20210723172121 80 8 1.0 5.0 0.00 0.00 0.00 37 1020.3
20210723171620 80 40 3.0 7.0 0.00 0.00 0.00 36 1020.4
20210723171051 80 50 3.0 7.0 0.00 0.00 0.00 36 1020.4
20210723170550 80 58 2.0 7.0 0.00 0.00 0.00 36 1020.4
20210723170046 80 33 2.0 7.0 0.00 0.00 0.00 31 1020.4
20210723165544 80 92 1.0 4.0 0.00 0.00 0.00 38 1020.3
20210723165015 80 193 2.0 4.0 0.00 0.00 0.00 37 1020.5
20210723164514 80 50 1.0 4.0 0.00 0.00 0.00 40 1020.6
20210723164010 80 97 1.0 3.0 0.00 0.00 0.00 41 1020.5
20210723163508 79 120 2.0 4.0 0.00 0.00 0.00 41 1020.6
20210723162939 79 48 2.0 5.0 0.00 0.00 0.00 44 1020.6
20210723162414 78 34 2.0 5.0 0.00 0.00 0.00 41 1020.7
20210723161847 78 4 2.0 7.0 0.00 0.00 0.00 40 1020.7
20210723161331 78 98 2.0 7.0 0.00 0.00 0.00 43 1020.8
20210723160831 78 60 3.0 7.0 0.00 0.00 0.00 45 1020.8
20210723160336 78 49 2.0 8.0 0.00 0.00 0.00 43 1020.9
20210723155807 78 12 2.0 6.0 0.00 0.00 0.00 43 1021.1
20210723155306 78 32 2.0 5.0 0.00 0.00 0.00 44 1021.2
20210723154738 77 54 2.0 7.0 0.00 0.00 0.00 42 1021.1
20210723154237 78 22 1.0 7.0 0.00 0.00 0.00 45 1021.3
20210723153707 77 320 2.0 6.0 0.00 0.00 0.00 47 1021.4
20210723153206 77 316 2.0 6.0 0.00 0.00 0.00 45 1021.4
20210723152637 77 331 2.0 6.0 0.00 0.00 0.00 44 1021.5
20210723152136 76 42 3.0 7.0 0.00 0.00 0.00 45 1021.5
20210723151610 76 100 3.0 10.0 0.00 0.00 0.00 45 1021.6
20210723151045 76 323 2.0 10.0 0.00 0.00 0.00 47 1021.6
20210723150519 76 94 2.0 6.0 0.00 0.00 0.00 45 1021.5
20210723145950 75 23 2.0 5.0 0.00 0.00 0.00 49 1021.6
20210723145441 75 307 2.0 6.0 0.00 0.00 0.00 50 1021.5
20210723144912 75 290 2.0 6.0 0.00 0.00 0.00 48 1021.6
20210723144410 74 132 2.0 6.0 0.00 0.00 0.00 51 1021.5
20210723143847 74 25 2.0 6.0 0.00 0.00 0.00 48 1021.5
20210723143335 74 28 2.0 5.0 0.00 0.00 0.00 48 1021.5
20210723142837 74 97 3.0 5.0 0.00 0.00 0.00 49 1021.6
20210723142305 74 25 2.0 5.0 0.00 0.00 0.00 48 1021.7
20210723141801 74 68 1.0 5.0 0.00 0.00 0.00 49 1021.7
20210723141257 74 120 1.0 3.0 0.00 0.00 0.00 49 1021.8
20210723140754 73 259 1.0 2.0 0.00 0.00 0.00 51 1021.9
20210723140251 73 11 2.0 5.0 0.00 0.00 0.00 52 1021.9
20210723135749 72 79 2.0 6.0 0.00 0.00 0.00 53 1021.9
20210723135223 72 36 2.0 6.0 0.00 0.00 0.00 53 1022.0
20210723134720 72 39 2.0 5.0 0.00 0.00 0.00 52 1022.0
20210723134215 71 44 3.0 7.0 0.00 0.00 0.00 53 1022.1
20210723133650 71 54 2.0 7.0 0.00 0.00 0.00 51 1022.1
20210723133147 71 37 2.0 6.0 0.00 0.00 0.00 53 1022.0
20210723132646 71 60 2.0 8.0 0.00 0.00 0.00 52 1022.1
20210723132120 71 63 3.0 8.0 0.00 0.00 0.00 53 1022.2
20210723131620 70 53 3.0 7.0 0.00 0.00 0.00 53 1022.1
20210723131110 70 12 2.0 5.0 0.00 0.00 0.00 54 1022.1
20210723130606 70 11 1.0 5.0 0.00 0.00 0.00 55 1022.1
20210723130105 69 28 1.0 5.0 0.00 0.00 0.00 53 1022.2
20210723125535 69 27 1.0 3.0 0.00 0.00 0.00 55 1022.1
20210723125036 69 38 0.0 2.0 0.00 0.00 0.00 57 1022.1
20210723124534 69 231 0.0 2.0 0.00 0.00 0.00 56 1022.2
20210723124032 68 204 0.0 2.0 0.00 0.00 0.00 58 1022.1
20210723123534 68 105 0.0 1.0 0.00 0.00 0.00 59 1022.1
20210723123011 68 354 0.0 1.0 0.00 0.00 0.00 59 1022.0
20210723122505 68 79 0.0 1.0 0.00 0.00 0.00 59 1022.0
20210723122006 67 28 0.0 1.0 0.00 0.00 0.00 59 1021.9
20210723121444 67 56 0.0 1.0 0.00 0.00 0.00 61 1021.9
20210723120946 67 57 1.0 3.0 0.00 0.00 0.00 59 1022.0
20210723120418 67 44 1.0 3.0 0.00 0.00 0.00 61 1021.9
20210723115918 67 77 0.0 2.0 0.00 0.00 0.00 57 1021.8
20210723115351 67 226 0.0 0.0 0.00 0.00 0.00 60 1021.8
20210723114856 66 226 0.0 0.0 0.00 0.00 0.00 63 1021.8
20210723114330 64 226 0.0 0.0 0.00 0.00 0.00 65 1021.8
20210723113832 63 226 0.0 1.0 0.00 0.00 0.00 67 1021.7
20210723113318 62 226 0.0 1.0 0.00 0.00 0.00 68 1021.7
20210723112818 62 226 0.0 1.0 0.00 0.00 0.00 69 1021.6
20210723112317 61 226 0.0 1.0 0.00 0.00 0.00 71 1021.7
20210723111819 60 226 0.0 1.0 0.00 0.00 0.00 72 1021.6
20210723111259 60 229 0.0 0.0 0.00 0.00 0.00 76 1021.6
20210723110755 59 230 0.0 0.0 0.00 0.00 0.00 81 1021.5
20210723110253 58 230 0.0 0.0 0.00 0.00 0.00 82 1021.5
20210723105753 58 230 0.0 0.0 0.00 0.00 0.00 82 1021.6
20210723105249 58 230 0.0 0.0 0.00 0.00 0.00 82 1021.6
20210723104749 58 231 0.0 0.0 0.00 0.00 0.00 82 1021.4
20210723104249 57 231 0.0 0.0 0.00 0.00 0.00 82 1021.4
20210723103727 58 231 0.0 0.0 0.00 0.00 0.00 82 1021.3
20210723103231 57 231 0.0 0.0 0.00 0.00 0.00 82 1021.2
20210723102709 57 231 0.0 0.0 0.00 0.00 0.00 82 1021.2
20210723102210 57 231 0.0 0.0 0.00 0.00 0.00 82 1021.1
20210723101648 57 231 0.0 0.0 0.00 0.00 0.00 82 1021.1
20210723101127 57 231 0.0 0.0 0.00 0.00 0.00 82 1021.0
20210723100619 57 231 0.0 0.0 0.00 0.00 0.00 82 1021.0
20210723100114 57 231 0.0 0.0 0.00 0.00 0.00 82 1021.0
20210723095614 57 231 0.0 0.0 0.00 0.00 0.00 83 1020.9
20210723095049 57 231 0.0 0.0 0.00 0.00 0.00 82 1020.9
20210723094529 57 231 0.0 0.0 0.00 0.00 0.00 83 1020.8
20210723094000 57 231 0.0 0.0 0.00 0.00 0.00 82 1020.8
20210723093457 57 231 0.0 0.0 0.00 0.00 0.00 80 1020.7
20210723092934 57 231 0.0 0.0 0.00 0.00 0.00 80 1020.6
20210723092411 57 231 0.0 0.0 0.00 0.00 0.00 79 1020.6
20210723091912 57 231 0.0 0.0 0.00 0.00 0.00 78 1020.6
20210723091410 57 231 0.0 0.0 0.00 0.00 0.00 77 1020.7
20210723090909 57 231 0.0 0.0 0.00 0.00 0.00 77 1020.5
20210723090408 57 231 0.0 0.0 0.00 0.00 0.00 77 1020.5
20210723085845 58 231 0.0 0.0 0.00 0.00 0.00 76 1020.6
20210723085338 58 231 0.0 0.0 0.00 0.00 0.00 76 1020.5
20210723084834 58 231 0.0 0.0 0.00 0.00 0.00 75 1020.4
20210723084332 58 231 0.0 0.0 0.00 0.00 0.00 75 1020.4
20210723083805 58 231 0.0 0.0 0.00 0.00 0.00 75 1020.3
20210723083303 58 231 0.0 0.0 0.00 0.00 0.00 75 1020.2
20210723082738 58 231 0.0 0.0 0.00 0.00 0.00 75 1020.3
20210723082210 59 231 0.0 0.0 0.00 0.00 0.00 75 1020.2
20210723081653 59 231 0.0 0.0 0.00 0.00 0.00 75 1020.1
20210723081151 59 231 0.0 0.0 0.00 0.00 0.00 76 1020.1
20210723080624 59 231 0.0 0.0 0.00 0.00 0.00 76 1020.1
20210723080055 59 231 0.0 0.0 0.00 0.00 0.00 76 1020.1
20210723075529 59 231 0.0 0.0 0.00 0.00 0.00 75 1020.1
20210723075026 59 231 0.0 0.0 0.00 0.00 0.00 75 1020.1
20210723074526 59 231 0.0 0.0 0.00 0.00 0.00 75 1020.1
20210723073956 59 231 0.0 0.0 0.00 0.00 0.00 75 1020.0
20210723073455 59 231 0.0 0.0 0.00 0.00 0.00 75 1020.0
20210723072928 59 231 0.0 0.0 0.00 0.00 0.00 75 1020.0
20210723072400 60 231 0.0 0.0 0.00 0.00 0.00 75 1020.1
20210723071858 60 231 0.0 0.0 0.00 0.00 0.00 75 1020.1
20210723071357 60 231 0.0 0.0 0.00 0.00 0.00 75 1020.3
20210723070850 60 231 0.0 0.0 0.00 0.00 0.00 75 1020.1
20210723070347 60 231 0.0 0.0 0.00 0.00 0.00 75 1020.2
20210723065821 60 231 0.0 0.0 0.00 0.00 0.00 75 1020.2
20210723065314 60 231 0.0 0.0 0.00 0.00 0.00 75 1020.2
20210723064813 60 231 0.0 0.0 0.00 0.00 0.00 75 1020.3
20210723064245 60 231 0.0 0.0 0.00 0.00 0.00 74 1020.3
20210723063741 60 231 0.0 0.0 0.00 0.00 0.00 73 1020.4
20210723063239 60 231 0.0 0.0 0.00 0.00 0.00 73 1020.3
20210723062711 60 231 0.0 0.0 0.00 0.00 0.00 72 1020.3
20210723062209 60 231 0.0 0.0 0.00 0.00 0.00 72 1020.3
20210723061640 61 231 0.0 0.0 0.00 0.00 0.00 72 1020.3
20210723061139 61 231 0.0 0.0 0.00 0.00 0.00 72 1020.4
20210723060610 61 231 0.0 0.0 0.00 0.00 0.00 72 1020.4
20210723060107 61 231 0.0 0.0 0.00 0.00 0.00 72 1020.5
20210723055604 61 231 0.0 0.0 0.00 0.00 0.00 72 1020.5
20210723055103 61 231 0.0 0.0 0.00 0.00 0.00 71 1020.6
20210723054534 61 231 0.0 0.0 0.00 0.00 0.00 71 1020.6
20210723054034 61 231 0.0 0.0 0.00 0.00 0.00 71 1020.6
20210723053520 61 231 0.0 0.0 0.00 0.00 0.00 71 1020.7
20210723053020 61 231 0.0 0.0 0.00 0.00 0.00 71 1020.8
20210723052456 62 231 0.0 0.0 0.00 0.00 0.00 71 1020.7
20210723051948 62 231 0.0 0.0 0.00 0.00 0.00 71 1020.8
20210723051447 62 231 0.0 0.0 0.00 0.00 0.00 70 1020.7
20210723050917 62 231 0.0 0.0 0.00 0.00 0.00 70 1020.7
20210723050414 62 231 0.0 0.0 0.00 0.00 0.00 70 1020.8
20210723045850 62 231 0.0 0.0 0.00 0.00 0.00 70 1020.7
20210723045323 62 231 0.0 0.0 0.00 0.00 0.00 69 1020.9
20210723044754 63 231 0.0 0.0 0.00 0.00 0.00 70 1020.8
20210723044252 63 231 0.0 0.0 0.00 0.00 0.00 70 1020.9
20210723043752 63 231 0.0 0.0 0.00 0.00 0.00 70 1020.9
20210723043251 63 231 0.0 0.0 0.00 0.00 0.00 70 1021.0
20210723042723 63 231 0.0 0.0 0.00 0.00 0.00 69 1021.0
20210723042219 63 231 0.0 0.0 0.00 0.00 0.00 69 1021.0
20210723041652 63 231 0.0 0.0 0.00 0.00 0.00 68 1020.9
20210723041129 63 231 0.0 0.0 0.00 0.00 0.00 68 1020.9
20210723040600 63 231 0.0 0.0 0.00 0.00 0.00 67 1020.9
20210723040059 63 231 0.0 0.0 0.00 0.00 0.00 68 1020.8
20210723035530 64 231 0.0 0.0 0.00 0.00 0.00 67 1020.9
20210723035029 63 231 0.0 0.0 0.00 0.00 0.00 68 1020.9
20210723034503 63 231 0.0 0.0 0.00 0.00 0.00 68 1020.8
20210723033934 64 231 0.0 0.0 0.00 0.00 0.00 68 1020.8
20210723033432 64 231 0.0 0.0 0.00 0.00 0.00 67 1020.8
20210723032904 64 231 0.0 0.0 0.00 0.00 0.00 67 1020.7
20210723032403 65 231 0.0 0.0 0.00 0.00 0.00 66 1020.6
20210723031835 65 231 0.0 0.0 0.00 0.00 0.00 66 1020.8
20210723031331 65 231 0.0 0.0 0.00 0.00 0.00 65 1020.6
20210723030826 65 231 0.0 0.0 0.00 0.00 0.00 66 1020.6
20210723030324 65 231 0.0 0.0 0.00 0.00 0.00 66 1020.7
20210723025759 66 231 0.0 0.0 0.00 0.00 0.00 65 1020.7
20210723025234 66 231 0.0 0.0 0.00 0.00 0.00 65 1020.6
20210723024732 66 231 0.0 0.0 0.00 0.00 0.00 65 1020.6
20210723024205 66 231 0.0 0.0 0.00 0.00 0.00 64 1020.6
20210723023701 67 231 0.0 0.0 0.00 0.00 0.00 64 1020.6
20210723023159 67 231 0.0 0.0 0.00 0.00 0.00 63 1020.6
20210723022702 67 231 0.0 0.0 0.00 0.00 0.00 63 1020.6
20210723022140 67 231 0.0 0.0 0.00 0.00 0.00 63 1020.6
20210723021638 68 231 0.0 0.0 0.00 0.00 0.00 63 1020.6
20210723021110 68 231 0.0 0.0 0.00 0.00 0.00 61 1020.6
20210723020610 68 231 0.0 0.0 0.00 0.00 0.00 61 1020.5
20210723020043 68 231 0.0 0.0 0.00 0.00 0.00 61 1020.4
20210723015515 68 231 0.0 0.0 0.00 0.00 0.00 61 1020.4
20210723015010 68 231 0.0 1.0 0.00 0.00 0.00 61 1020.4
20210723014509 68 231 0.0 1.0 0.00 0.00 0.00 60 1020.3
20210723013940 68 231 0.0 1.0 0.00 0.00 0.00 60 1020.3
20210723013438 68 231 0.0 1.0 0.00 0.00 0.00 61 1020.3
20210723012909 68 215 0.0 1.0 0.00 0.00 0.00 62 1020.2
20210723012409 68 215 0.0 1.0 0.00 0.00 0.00 61 1020.2
20210723011844 68 67 0.0 0.0 0.00 0.00 0.00 60 1020.2
20210723011314 68 67 0.0 0.0 0.00 0.00 0.00 61 1020.1
20210723010810 68 67 0.0 0.0 0.00 0.00 0.00 61 1020.0
20210723010306 68 67 0.0 0.0 0.00 0.00 0.00 61 1020.0
20210723005806 68 67 0.0 1.0 0.00 0.00 0.00 62 1019.9
20210723005236 69 67 0.0 1.0 0.00 0.00 0.00 61 1020.0
20210723004736 69 67 0.0 0.0 0.00 0.00 0.00 60 1019.9
20210723004206 69 67 0.0 0.0 0.00 0.00 0.00 58 1019.9
20210723003706 69 67 0.0 0.0 0.00 0.00 0.00 58 1019.8
20210723003150 70 67 0.0 0.0 0.00 0.00 0.00 55 1019.7
20210723002655 70 67 0.0 0.0 0.00 0.00 0.00 55 1019.7
20210723002129 71 67 0.0 0.0 0.00 0.00 0.00 53 1019.7
20210723001615 71 67 0.0 0.0 0.00 0.00 0.00 53 1019.7
20210723001119 71 67 0.0 0.0 0.00 0.00 0.00 53 1019.7
20210723000552 72 67 0.0 0.0 0.00 0.00 0.00 52 1019.7
20210723000025 72 67 0.0 0.0 0.00 0.00 0.00 49 1019.5
20210722235521 72 67 0.0 0.0 0.00 0.00 0.00 50 1019.4
20210722235019 73 67 0.0 0.0 0.00 0.00 0.00 49 1019.5
20210722234453 73 67 0.0 0.0 0.00 0.00 0.00 50 1019.5
20210722233925 73 67 0.0 0.0 0.00 0.00 0.00 49 1019.4
20210722233421 74 67 0.0 0.0 0.00 0.00 0.00 49 1019.4
20210722232918 74 67 0.0 0.0 0.00 0.00 0.00 47 1019.4
20210722232416 75 67 0.0 0.0 0.00 0.00 0.00 48 1019.3
20210722231851 75 67 0.0 0.0 0.00 0.00 0.00 45 1019.3
20210722231349 76 67 0.0 0.0 0.00 0.00 0.00 47 1019.3
20210722230816 76 67 0.0 0.0 0.00 0.00 0.00 43 1019.3
20210722230315 76 67 0.0 0.0 0.00 0.00 0.00 43 1019.2
20210722225816 76 67 0.0 0.0 0.00 0.00 0.00 42 1019.0
20210722225251 76 67 0.0 0.0 0.00 0.00 0.00 42 1019.0
20210722224728 76 67 0.0 0.0 0.00 0.00 0.00 43 1019.0
20210722224232 77 67 0.0 0.0 0.00 0.00 0.00 43 1018.9
20210722223702 77 67 0.0 1.0 0.00 0.00 0.00 39 1018.9
20210722223158 77 67 0.0 1.0 0.00 0.00 0.00 39 1018.8
20210722222656 78 67 0.0 3.0 0.00 0.00 0.00 38 1018.9
20210722222158 78 67 0.0 3.0 0.00 0.00 0.00 39 1018.8
20210722221659 78 38 0.0 2.0 0.00 0.00 0.00 37 1018.8
20210722221141 78 108 0.0 1.0 0.00 0.00 0.00 39 1018.7
20210722220642 78 108 0.0 1.0 0.00 0.00 0.00 40 1018.7
20210722220112 78 105 0.0 1.0 0.00 0.00 0.00 39 1018.8
20210722215607 78 297 0.0 1.0 0.00 0.00 0.00 38 1018.7
20210722215045 78 272 0.0 1.0 0.00 0.00 0.00 40 1018.9
20210722214525 79 76 0.0 1.0 0.00 0.00 0.00 40 1018.8
20210722214010 79 86 0.0 2.0 0.00 0.00 0.00 39 1018.9
20210722213454 79 101 0.0 2.0 0.00 0.00 0.00 41 1018.8
20210722212926 79 65 0.0 2.0 0.00 0.00 0.00 42 1018.9
20210722212402 80 2 0.0 2.0 0.00 0.00 0.00 40 1018.9
20210722211843 80 200 0.0 2.0 0.00 0.00 0.00 40 1018.8
20210722211324 80 236 1.0 4.0 0.00 0.00 0.00 41 1018.8
20210722210800 80 208 0.0 4.0 0.00 0.00 0.00 33 1018.9
20210722210236 80 335 0.0 1.0 0.00 0.00 0.00 37 1019.0
20210722205720 80 219 0.0 2.0 0.00 0.00 0.00 37 1019.0
20210722205157 80 239 0.0 2.0 0.00 0.00 0.00 39 1019.0
20210722204635 80 226 1.0 3.0 0.00 0.00 0.00 39 1019.0
20210722204132 80 219 1.0 2.0 0.00 0.00 0.00 41 1019.0
20210722203635 80 351 0.0 3.0 0.00 0.00 0.00 39 1019.0
20210722203110 80 276 0.0 3.0 0.00 0.00 0.00 39 1018.8
20210722202546 81 23 1.0 3.0 0.00 0.00 0.00 36 1018.9
20210722202043 81 245 1.0 2.0 0.00 0.00 0.00 36 1018.8
20210722201517 80 113 0.0 2.0 0.00 0.00 0.00 41 1018.9
20210722200947 80 193 0.0 2.0 0.00 0.00 0.00 39 1019.0
20210722200447 79 234 0.0 2.0 0.00 0.00 0.00 41 1019.0
20210722195941 80 202 0.0 2.0 0.00 0.00 0.00 40 1018.9
20210722195439 80 172 0.0 2.0 0.00 0.00 0.00 38 1018.9
20210722194938 80 98 0.0 3.0 0.00 0.01 0.00 37 1019.0